Regional Weather Roundup
Issued by NWS

Home | Current Version | Previous Version | Graphics & Text | Print | Product List | Glossary Off
Versions: 1 2 3 4 5 6 7 8 9 10 11 12 13 14 15 16 17 18 19 20 21 22 23 24 25 26 27 28 29 30 31 32 33 34 35 36 37 38 39 40 41 42 43 44 45 46 47 48 49 50

000
ASUS43 KDMX 221307
RWRIA

WEATHER ROUNDUP FOR IOWA
NATIONAL WEATHER SERVICE DES MOINES IA
700 AM CST SAT NOV 22 2014

NOTE: "FAIR" INDICATES FEW OR NO CLOUDS BELOW 12,000 FEET WITH NO
SIGNIFICANT WEATHER AND/OR OBSTRUCTIONS TO VISIBILITY.

* - THESE STATIONS ARE NOT NWS STATIONS...THUS NOT UNDER NWS
QUALITY CONTROL.  THEY ALSO DO NOT REPORT WEATHER SUCH
AS PRECIPITATION OR FOG.

IAZ001>003-012>014-020>022-031>034-043>046-221400-
   NORTHWEST IOWA

CITY           SKY/WX    TMP DP  RH WIND       PRES   REMARKS
CARROLL *      CLOUDY    37  36  93 SW9       29.86S FOG     WCI  31
CHEROKEE *     CLOUDY    36  36 100 SW15      29.82S FOG     WCI  26
DENISON *      CLOUDY    36  36 100 S9        29.83F FOG     WCI  29
LE MARS *      FOG       36  36 100 S9        29.80F VSB 3/4 WCI  29
ORANGE CITY *  FOG       36  34  93 S9        29.78F VSB 1/4 WCI  29
SHELDON *      FOG       34  34 100 S9        29.77F VSB 1/4 WCI  26
SIOUX CITY     CLOUDY    38  35  89 S12       29.83F FOG     WCI  30
SPENCER        FOG       35  34  96 SW10      29.81F VSB 3/4 WCI  27
STORM LAKE *   FOG       36  36 100 SW15      29.81F VSB 1/4 WCI  26
$$

IAZ055>058-069>071-079>083-090>094-221400-
   SOUTHWEST IOWA

CITY           SKY/WX    TMP DP  RH WIND       PRES   REMARKS
ATLANTIC *     CLOUDY    37  37 100 SW8       29.90R FOG     WCI  31
AUDUBON *      CLOUDY    37  32  81 S5        29.88S HAZE    WCI  34
CLARINDA *     CLOUDY    41  41 100 S6        29.93F
COUNCIL BLFS * CLOUDY    37  37 100 S10       29.87F FOG     WCI  30
CRESTON *      FOG       39  39 100 SW10G16   29.91S VSB 3/4 WCI  32
HARLAN  *      CLOUDY    36  36 100 S9        29.91F FOG     WCI  29
LAMONI         MOCLDY    42  41  96 SW12      29.93S FOG
RED OAK *      CLOUDY    39  39 100 SW7       29.92R FOG     WCI  34
SHENANDOAH *   CLOUDY    39  39 100 SW7       29.92F FOG     WCI  34
$$

IAZ047>049-059>061-072>074-084-221400-
   CENTRAL IOWA

CITY           SKY/WX    TMP DP  RH WIND       PRES   REMARKS
AMES           CLOUDY    37  36  96 S8        29.88F FOG     WCI  31
ANKENY *       CLOUDY    39  39 100 S6        29.90S FOG     WCI  35
CHARITON *     CLOUDY    45  45 100 SW12      29.92S FOG
DES MOINES     DRZL/FOG  40  39  97 SW8       29.90F VSB 1/2 WCI  34
GRINNELL*      FOG       37  37 100 S8        29.91S VSB 1/2 WCI  31
KNOXVILLE *    FOG       43  43 100 SW9       29.90F VSB 1/2
MARSHALLTOWN   FOG       36  35  96 S7        29.88F VSB 1/4 WCI  30
PELLA *        SNOW      39  39 100 S5        29.92F VSB 1/4
PERRY *        CLOUDY    37  37 100 S8        29.88S FOG     WCI  31
$$

IAZ004>006-015-016-023>025-035-036-221400-
   NORTH CENTRAL IOWA

CITY           SKY/WX    TMP DP  RH WIND       PRES   REMARKS
ALGONA *       FOG       34  34 100 S12       29.83S VSB 1/4 WCI  25
CLARION *      FOG       34  34 100 S10       29.85S VSB 1/4 WCI  26
ESTHERVILLE    FOG       34  34 100 SW10      29.79F VSB 3/4 WCI  26
FORT DODGE *   CLOUDY    36  34  93 S9        29.86F VSB 1/2 WCI  29
MASON CITY     FOG       34  34 100 S8        29.85F VSB 1/2 WCI  27
FOREST CITY *  FOG       34  34 100 S5        29.82F VSB 1/4 WCI  30
IOWA FALLS *   SNOW      34  34 100 S8        29.88S VSB 1/2 WCI  27
$$

IAZ007>011-017>019-026>030-037>042-050>054-066-221400-
   NORTHEAST IOWA

CITY           SKY/WX    TMP DP  RH WIND       PRES   REMARKS
CEDAR RAPIDS   FOG       35  35 100 S6        29.92F VSB 1/4 WCI  30
CHARLES CITY * CLOUDY    34  34 100 S6        29.87S FOG     WCI  29
CLINTON *      CLOUDY    36  34  93 S5        30.00F WCI  32
DECORAH *      CLOUDY    34  34 100 VRB7      29.87S FOG     WCI  28
DUBUQUE        FOG       32  32 100 S12       29.93F VSB 1/4 WCI  23
MONTICELLO *   FOG       34  34 100 S6        29.94F VSB 1/2 WCI  29
OELWEIN *      FOG       34  34 100 S12       29.89F VSB 0   WCI  25
WATERLOO       FOG       34  34 100 S9        29.89S VSB 3/4 WCI  27
$$

IAZ064-065-067-068-078-221400-
   EAST CENTRAL IOWA

CITY           SKY/WX    TMP DP  RH WIND       PRES   REMARKS
DAVENPORT      CLOUDY    40  37  89 S12       29.98S FOG     WCI  33
IOWA CITY      FOG       36  36 100 SE5       29.96F VSB 3/4 WCI  32
MT. PLEASANT * CLOUDY    43  41  93 S12       29.97F
MUSCATINE *    MIX PCPN  39  39 100 S7        29.98S WCI  34
QUAD CITIES    CLOUDY    41  38  89 S9        29.97F FOG
$$

IAZ062-063-075>077-085>089-095>099-221400-
   SOUTHEAST IOWA

CITY           SKY/WX    TMP DP  RH WIND       PRES   REMARKS
BURLINGTON     CLOUDY    45  42  89 S10       29.98F
FAIRFIELD *    CLOUDY    41  39  93 S9        29.95F
FORT MADISON * CLOUDY    48  45  87 S13       29.99F
KEOKUK *       CLOUDY    46  43  87 S10       29.98F
OSKALOOSA *    FOG       39  39 100 S9        29.92F VSB 1/4 WCI  33
CENTERVILLE *  CLOUDY    48  48 100 S12       29.94S FOG
OTTUMWA        FOG       42  41  96 S8        29.93F VSB 1/2
WASHINGTON *   FOG       41  41 100 S12       29.95F VSB 3/4
$$

ABBREVIATIONS USED IN REMARKS
   TC - TEMPERATURES IN CELSIUS
  WCI - WIND CHILL INDEX
   HX - HEAT INDEX
  VSB - VISIBILITY
$$



USA.gov is the U.S. government's official web portal to all federal, state and local government web resources and services.